AB9BZ Weather Reports


time (UTC)temp
C
wind
direction
speed
KPH
gust
KPH
rain 1hr
cm
rain 24hr
cm
rain mn
cm
humidity
%
barometer
mb
20260906112556 21 76 1.6 8.0 0.00 0.00 0.00 95 998.1
20260906111524 22 55 3.2 6.4 0.00 0.00 0.00 95 998.1
20260906110513 22 61 3.2 8.0 0.00 0.00 0.00 95 998.1
20260906105521 22 62 1.6 4.8 0.00 0.00 0.00 95 997.9
20260906104529 22 87 1.6 3.2 0.00 0.00 0.00 94 997.8
20260906103539 22 44 3.2 8.0 0.00 0.00 0.00 94 997.6
20260906102527 22 33 1.6 6.4 0.00 0.00 0.00 93 997.7
20260906101557 22 73 1.6 4.8 0.00 0.00 0.00 93 997.4
20260906100524 22 106 1.6 4.8 0.00 0.00 0.00 92 997.6
20260906095514 22 90 0.0 4.8 0.00 0.00 0.00 92 997.5
20260906094542 22 41 0.0 3.2 0.00 0.00 0.00 91 997.4
20260906093530 22 0.0 0.0 0.00 0.00 0.00 91 997.3
20260906092539 22 23 0.0 3.2 0.00 0.00 0.00 90 997.4
20260906091528 22 45 0.0 4.8 0.00 0.00 0.00 89 997.3
20260906090517 23 45 3.2 4.8 0.00 0.00 0.00 89 997.3
20260906085525 22 51 1.6 4.8 0.00 0.00 0.00 89 997.3
20260906084533 22 0.0 0.0 0.00 0.00 0.00 88 997.4
20260906083542 22 56 3.2 6.4 0.00 0.00 0.00 88 997.2
20260906082531 22 29 3.2 6.4 0.00 0.00 0.00 88 997.3
20260906081520 23 71 1.6 4.8 0.00 0.00 0.00 88 997.3
20260906080548 23 89 3.2 6.4 0.00 0.00 0.00 88 997.4
20260906075517 23 77 4.8 8.0 0.00 0.00 0.00 87 997.4
20260906074525 23 61 3.2 9.7 0.00 0.00 0.00 87 997.3
20260906073533 23 28 4.8 8.0 0.00 0.00 0.00 87 997.3
20260906072523 23 75 6.4 8.0 0.00 0.00 0.00 87 997.4
20260906071531 23 43 3.2 6.4 0.00 0.00 0.00 87 997.4
20260906070520 23 95 3.2 6.4 0.00 0.00 0.00 87 997.6
20260906065528 23 44 6.4 9.7 0.00 0.00 0.00 87 997.5
20260906064536 23 74 4.8 8.0 0.00 0.00 0.00 86 997.6
20260906063526 23 48 8.0 11.3 0.00 0.00 0.00 86 997.5
20260906062534 23 46 6.4 9.7 0.00 0.00 0.00 87 997.4
20260906061446 23 23 8.0 12.9 0.00 0.00 0.00 87 997.6
20260906060454 23 35 8.0 14.5 0.00 0.00 0.00 88 997.6
20260906055443 23 51 4.8 9.7 0.00 0.00 0.00 88 997.6
20260906054451 23 43 6.4 9.7 0.00 0.00 0.00 89 997.5
20260906053521 23 19 6.4 14.5 0.00 0.00 0.00 89 997.5
20260906052448 23 43 6.4 8.0 0.00 0.00 0.00 90 997.3
20260906051457 23 56 6.4 11.3 0.00 0.00 0.00 90 997.2
20260906050446 23 42 4.8 8.0 0.00 0.00 0.00 90 997.2
20260906045454 23 36 6.4 12.9 0.00 0.00 0.00 90 997.3
20260906044443 23 56 6.4 9.7 0.00 0.00 0.00 90 996.9
20260906043451 23 64 4.8 6.4 0.00 0.00 0.00 90 996.8
20260906042440 23 41 8.0 11.3 0.00 0.00 0.00 90 996.6
20260906041448 23 40 9.7 14.5 0.00 0.00 0.00 90 996.6
20260906040456 23 43 6.4 9.7 0.00 0.00 0.00 90 996.6
20260906035446 23 53 8.0 12.9 0.00 0.00 0.00 90 996.4
20260906034514 23 16 11.3 14.5 0.00 0.00 0.00 90 996.5
20260906033443 23 25 9.7 14.5 0.00 0.00 0.00 90 996.5
20260906032451 23 21 11.3 14.5 0.00 0.00 0.00 90 996.6
20260906031459 23 34 11.3 14.5 0.00 0.00 0.00 89 996.4
20260906030448 23 61 9.7 12.9 0.00 0.00 0.00 89 996.5
20260906025455 23 23 9.7 14.5 0.00 0.00 0.00 89 996.4
20260906024445 23 28 9.7 14.5 0.00 0.00 0.00 89 996.4
20260906023513 23 29 9.7 12.9 0.00 0.00 0.00 89 996.3
20260906022501 23 359 8.0 11.3 0.00 0.00 0.00 88 996.3
20260906021511 23 26 11.3 14.5 0.00 0.00 0.00 88 996.5
20260906020458 23 36 11.3 16.1 0.00 0.00 0.00 88 996.6
20260906015448 23 33 9.7 12.9 0.00 0.00 0.00 89 996.7
20260906014457 23 26 14.5 19.3 0.00 0.00 0.00 89 996.5
20260906013445 23 27 11.3 19.3 0.00 0.00 0.00 89 996.6
20260906012453 23 51 9.7 14.5 0.00 0.00 0.00 89 996.4
20260906011501 23 19 11.3 14.5 0.00 0.00 0.00 89 996.2
20260906010510 23 50 11.3 17.7 0.00 0.00 0.00 89 996.3
20260906005518 23 45 9.7 14.5 0.00 0.00 0.00 89 996.0
20260906004447 23 50 11.3 19.3 0.00 0.00 0.00 89 996.0
20260906003455 23 41 14.5 17.7 0.00 0.00 0.00 89 995.8
20260906002503 23 5 12.9 14.5 0.00 0.00 0.00 89 996.0
20260906001452 23 50 12.9 24.1 0.00 0.00 0.00 87 996.0
20260906000501 23 19 11.3 14.5 0.00 0.00 0.00 87 995.9
20260905235450 23 31 16.1 24.1 0.00 0.00 0.00 86 995.9
20260905234458 23 57 12.9 19.3 0.00 0.00 0.00 86 995.8
20260905233525 23 26 9.7 19.3 0.00 0.00 0.00 86 995.7
20260905232455 24 32 11.3 17.7 0.00 0.00 0.00 86 995.7
20260905231503 25 31 11.3 16.1 0.00 0.00 0.00 85 995.6
20260905230452 25 20 17.7 24.1 0.00 0.00 0.00 84 995.6
20260905225500 25 25 16.1 20.9 0.00 0.00 0.00 82 995.3
20260905224508 26 8 9.7 12.9 0.00 0.00 0.00 81 995.3
20260905223457 26 21 12.9 16.1 0.00 0.00 0.00 80 995.5
20260905222504 27 44 11.3 17.7 0.00 0.00 0.00 78 995.4
20260905221454 27 43 9.7 14.5 0.00 0.00 0.00 77 995.4
20260905220501 27 357 9.7 14.5 0.00 0.00 0.00 75 995.3
20260905215509 28 29 9.7 16.1 0.00 0.00 0.00 72 995.3
20260905214459 28 34 11.3 12.9 0.00 0.00 0.00 73 995.2
20260905213507 28 19 8.0 11.3 0.00 0.00 0.00 73 995.1
20260905212457 28 49 9.7 14.5 0.00 0.00 0.00 73 995.1
20260905211504 28 55 11.3 22.5 0.00 0.00 0.00 70 994.9
20260905210453 30 28 9.7 17.7 0.00 0.00 0.00 68 995.1
20260905205502 28 48 6.4 8.0 0.00 0.00 0.00 72 995.1
20260905204510 28 26 6.4 9.7 0.00 0.00 0.00 73 995.2
20260905203519 28 52 8.0 12.9 0.00 0.00 0.00 72 995.2
20260905202526 28 7 6.4 11.3 0.00 0.00 0.00 72 995.1
20260905201456 28 24 9.7 11.3 0.00 0.00 0.00 71 995.1
20260905200504 30 32 12.9 17.7 0.00 0.00 0.00 69 995.2
20260905195513 30 48 6.4 11.3 0.00 0.00 0.00 70 995.2
20260905194501 30 52 11.3 16.1 0.00 0.00 0.00 69 995.1
20260905193510 30 60 9.7 19.3 0.00 0.00 0.00 69 995.3
20260905192459 30 87 9.7 14.5 0.00 0.00 0.00 69 995.3
20260905191507 30 53 9.7 14.5 0.00 0.00 0.00 70 995.4
20260905190516 29 51 8.0 12.9 0.00 0.00 0.00 73 995.5
20260905185505 30 21 12.9 17.7 0.00 0.00 0.00 71 995.3
20260905184533 30 16 8.0 16.1 0.00 0.00 0.00 70 995.3
20260905183542 30 10 6.4 12.9 0.00 0.00 0.00 71 995.4
20260905182531 30 7 8.0 16.1 0.00 0.00 0.00 69 995.5
20260905181459 30 91 8.0 11.3 0.00 0.00 0.00 69 995.3
20260905180508 30 60 8.0 11.3 0.00 0.00 0.00 71 995.3
20260905175517 30 14 6.4 11.3 0.00 0.00 0.00 72 995.3
20260905174505 30 19 9.7 12.9 0.00 0.00 0.00 70 995.3
20260905173514 30 24 11.3 14.5 0.00 0.00 0.00 70 995.3
20260905172503 30 29 11.3 16.1 0.00 0.00 0.00 70 995.2
20260905171508 31 69 11.3 14.5 0.00 0.00 0.00 68 995.2
20260905170516 30 36 8.0 11.3 0.00 0.00 0.00 69 995.3
20260905165506 31 40 8.0 11.3 0.00 0.00 0.00 69 995.4
20260905164513 30 35 11.3 16.1 0.00 0.00 0.00 70 995.5
20260905163502 31 37 11.3 16.1 0.00 0.00 0.00 69 995.5
20260905162510 30 46 8.0 9.7 0.00 0.00 0.00 71 995.4
20260905161519 30 18 8.0 14.5 0.00 0.00 0.00 71 995.4
20260905160508 30 38 8.0 12.9 0.00 0.00 0.00 70 995.2
20260905155516 30 54 8.0 12.9 0.00 0.00 0.00 68 995.2
20260905154525 30 30 8.0 11.3 0.00 0.00 0.00 70 995.2
20260905153513 30 66 8.0 12.9 0.00 0.00 0.00 69 995.0
20260905152520 30 29 6.4 9.7 0.00 0.00 0.00 71 995.0
20260905151530 30 29 6.4 9.7 0.00 0.00 0.00 73 994.8
20260905150517 29 39 9.7 16.1 0.00 0.00 0.00 73 994.8
20260905145527 28 27 8.0 11.3 0.00 0.00 0.00 74 995.0
20260905144515 28 57 9.7 12.9 0.00 0.00 0.00 77 994.8
20260905143504 28 29 11.3 14.5 0.00 0.00 0.00 77 994.6
20260905142512 28 37 8.0 11.3 0.00 0.00 0.00 78 994.6
20260905141520 28 47 11.3 12.9 0.00 0.00 0.00 79 994.5
20260905140550 27 20 8.0 12.9 0.00 0.00 0.00 82 994.3
20260905135518 27 29 11.3 16.1 0.00 0.00 0.00 84 994.3
20260905134507 27 70 8.0 14.5 0.00 0.00 0.00 86 994.5
20260905133514 26 21 6.4 8.0 0.00 0.00 0.00 90 994.7
20260905132522 26 42 6.4 8.0 0.00 0.00 0.00 89 994.8
20260905131512 25 45 4.8 6.4 0.00 0.00 0.00 92 994.5
20260905130520 25 39 3.2 8.0 0.00 0.00 0.00 94 994.2
20260905125509 25 69 3.2 8.0 0.00 0.00 0.00 94 994.3
20260905124537 25 13 4.8 6.4 0.00 0.00 0.00 95 994.1
20260905123546 25 40 6.4 9.7 0.00 0.00 0.00 95 993.9
20260905122514 25 31 4.8 8.0 0.00 0.00 0.00 94 994.0
20260905121523 25 25 3.2 6.4 0.00 0.00 0.00 95 993.7
20260905120512 25 54 4.8 8.0 0.00 0.00 0.00 95 993.8
20260905115600 25 45 1.6 4.8 0.00 0.00 0.00 95 993.6
20260905114510 25 63 3.2 8.0 0.00 0.00 0.00 95 993.3
20260905113518 25 54 3.2 6.4 0.00 0.00 0.00 94 993.2